Bostic, NC

9:52 AM EST on February 25, 2017 (GMT -0500)
Rutherford County-Marchman

Weather History for KFQD - December, 2013

Change the Weather History Date:

Tuesday, December 17, 2013

  Actual Average (KAVL) Record (KAVL)
Temperature  
Mean Temperature 45 °F -  
Max Temperature 63 °F 47 °F 72 °F (1924)
Min Temperature 27 °F 26 °F 7 °F (1943)
Degree Days  
Heating Degree Days 20    
Moisture  
Dew Point 29 °F    
Average Humidity 56    
Maximum Humidity 96    
Minimum Humidity 30    
Precipitation  
Precipitation 0.03 in - - ()
Sea Level Pressure  
Sea Level Pressure 30.05 in    
Wind  
Wind Speed 3 mph (WSW)    
Max Wind Speed 20 mph    
Max Gust Speed 30 mph    
Visibility 10 miles    
Events Thunderstorm    
Averages and records for this station are not official NWS values.
T = Trace of Precipitation, MM = Missing Value Source: NWS Daily Summary

Daily Weather History Graph

Daily Weather History Graph

Search for Another Location

Airport or City:

Trip Planner

Search our weather history database for the weather conditions in past years. The results will help you decide how hot, cold, wet, or windy it might be!

Date:

Astronomy

Dec. 17, 2013 Rise Set
Actual Time 7:30 AM EST 5:17 PM EST
Civil Twilight 7:02 AM EST 5:45 PM EST
Nautical Twilight 6:30 AM EST 6:17 PM EST
Astronomical Twilight 5:59 AM EST 6:48 PM EST
Moon 5:53 PM EST (12/17) 7:28 AM EST (12/17)
Length of Visible Light 10h 42m
Length of Day
9h 46m
Full, 100% of the Moon is Illuminated
Dec 17
Full
Dec 25
Last Quarter
Jan 1
New
Jan 7
First Quarter
Jan 15
Full

Hourly Weather History & Observations

Time (EST) Temp. Windchill Dew Point Humidity Pressure Visibility Wind Dir Wind Speed Gust Speed Precip Events Conditions
12:15 AM 40.8 °F - 27.1 °F 58% 30.13 in 10.0 mi Calm Calm - N/A   Clear
12:55 AM 40.1 °F - 27.5 °F 61% 30.12 in 10.0 mi Calm Calm - N/A   Clear
1:15 AM 38.8 °F - 27.5 °F 64% 30.12 in 10.0 mi Calm Calm - N/A   Clear
1:35 AM 36.7 °F - 27.7 °F 70% 30.12 in 10.0 mi Calm Calm - N/A   Clear
1:55 AM 36.7 °F - 27.9 °F 70% 30.12 in 10.0 mi Calm Calm - N/A   Clear
2:15 AM 35.1 °F - 27.7 °F 74% 30.13 in 10.0 mi Calm Calm - N/A   Clear
2:35 AM 36.0 °F - 27.7 °F 72% 30.12 in 10.0 mi Calm Calm - N/A   Clear
2:55 AM 34.0 °F - 28.2 °F 79% 30.13 in 10.0 mi Calm Calm - N/A   Clear
3:15 AM 32.4 °F - 27.7 °F 83% 30.13 in 10.0 mi Calm Calm - N/A   Clear
3:35 AM 32.0 °F - 28.0 °F 85% 30.13 in 10.0 mi Calm Calm - N/A   Clear
3:55 AM 31.8 °F - 28.0 °F 86% 30.12 in 10.0 mi Calm Calm - N/A   Clear
4:15 AM 33.1 °F - 28.2 °F 82% 30.12 in 10.0 mi Calm Calm - N/A   Clear
4:35 AM 30.4 °F - 27.7 °F 90% 30.12 in 10.0 mi Calm Calm - N/A   Clear
4:55 AM 30.0 °F 26.5 °F 27.0 °F 88% 30.12 in 10.0 mi SSW 3.5 mph - N/A   Clear
5:15 AM 31.5 °F - 27.5 °F 85% 30.12 in 10.0 mi Calm Calm - N/A   Clear
5:35 AM 32.0 °F - 27.5 °F 83% 30.12 in 10.0 mi Calm Calm - N/A   Clear
5:55 AM 31.6 °F - 27.5 °F 85% 30.12 in 10.0 mi Calm Calm - N/A   Clear
6:15 AM 30.4 °F - 27.1 °F 88% 30.12 in 10.0 mi Calm Calm - N/A   Clear
6:35 AM 29.3 °F - 26.6 °F 90% 30.12 in 10.0 mi Calm Calm - N/A   Clear
6:55 AM 29.8 °F - 27.0 °F 89% 30.11 in 10.0 mi Calm Calm - N/A   Clear
7:15 AM 27.7 °F - 26.2 °F 94% 30.12 in 10.0 mi Calm Calm - N/A   Clear
7:35 AM 27.0 °F - 26.1 °F 96% 30.12 in 10.0 mi Calm Calm - N/A   Clear
7:55 AM 30.2 °F - 27.3 °F 89% 30.12 in 10.0 mi Calm Calm - N/A   Clear
8:15 AM 31.8 °F - 28.0 °F 86% 30.12 in 10.0 mi Calm Calm - N/A   Clear
8:35 AM 32.9 °F - 29.3 °F 87% 30.12 in 10.0 mi Calm Calm - N/A   Clear
8:55 AM 36.0 °F - 31.5 °F 84% 30.12 in 10.0 mi Calm Calm - N/A   Clear
9:15 AM 37.0 °F - 31.1 °F 79% 30.12 in 10.0 mi Calm Calm - N/A   Clear
9:35 AM 39.2 °F - 31.5 °F 74% 30.12 in 10.0 mi Calm Calm - N/A   Clear
9:55 AM 41.0 °F - 31.6 °F 69% 30.12 in 10.0 mi Calm Calm - N/A   Clear
10:15 AM 43.9 °F - 32.0 °F 63% 30.11 in 10.0 mi Calm Calm - N/A   Clear
10:35 AM 46.6 °F - 32.0 °F 57% 30.11 in 10.0 mi Calm Calm - N/A   Clear
10:55 AM 48.7 °F - 32.2 °F 53% 30.10 in 10.0 mi South 4.6 mph - N/A   Clear
11:15 AM - - - N/A% - - North - - N/A   Unknown
11:35 AM 53.4 °F - 31.1 °F 43% 30.07 in 10.0 mi SSW 4.6 mph - 0.03 in Thunderstorm Thunderstorm
11:55 AM 54.3 °F - 31.8 °F 42% 30.06 in 10.0 mi South 5.8 mph - 0.03 in   Clear
12:15 PM 56.5 °F - 32.0 °F 39% 30.03 in 10.0 mi South 5.8 mph - N/A Thunderstorm Thunderstorm
12:35 PM 58.1 °F - 32.2 °F 38% 30.02 in 10.0 mi SW 6.9 mph 17.3 mph N/A   Clear
12:55 PM 58.8 °F - 32.4 °F 37% 30.00 in 10.0 mi SSW 8.1 mph 17.3 mph N/A   Clear
1:15 PM 59.7 °F - 32.4 °F 36% 29.99 in 10.0 mi South 9.2 mph 18.4 mph N/A   Clear
1:35 PM 60.8 °F - 32.7 °F 35% 29.98 in 10.0 mi South 11.5 mph 20.7 mph N/A   Clear
1:55 PM 61.3 °F - 32.2 °F 33% 29.97 in 10.0 mi South 13.8 mph 20.7 mph N/A   Clear
2:15 PM 61.3 °F - 32.5 °F 34% 29.96 in 10.0 mi SW 8.1 mph 19.6 mph N/A   Clear
2:35 PM 62.1 °F - 33.1 °F 34% 29.95 in 10.0 mi South 12.7 mph 20.7 mph N/A   Clear
2:55 PM 62.6 °F - 32.9 °F 33% 29.94 in 10.0 mi SSW 11.5 mph 19.6 mph N/A   Clear
3:15 PM 63.5 °F - 32.5 °F 31% 29.94 in 10.0 mi SW 8.1 mph - N/A   Clear
3:35 PM 63.0 °F - 32.5 °F 32% 29.94 in 10.0 mi SSW 8.1 mph 16.1 mph N/A   Clear
3:55 PM 62.6 °F - 32.9 °F 33% 29.94 in 10.0 mi SSW 10.4 mph 18.4 mph N/A   Clear
4:15 PM 61.9 °F - 32.0 °F 33% 29.93 in 10.0 mi SSW 8.1 mph - N/A   Clear
4:35 PM 61.7 °F - 32.0 °F 33% 29.93 in 10.0 mi SW 6.9 mph - N/A   Scattered Clouds
4:55 PM 60.6 °F - 32.0 °F 34% 29.94 in 10.0 mi SW 6.9 mph - N/A   Scattered Clouds
5:15 PM 59.0 °F - 32.0 °F 36% 29.93 in 10.0 mi SSW 6.9 mph - N/A   Clear
5:35 PM 58.5 °F - 30.4 °F 34% 29.92 in 10.0 mi WSW 6.9 mph - N/A   Clear
5:55 PM 59.0 °F - 27.7 °F 30% 29.92 in 10.0 mi WSW 9.2 mph 17.3 mph N/A   Clear
6:15 PM 57.9 °F - 27.5 °F 31% 29.92 in 10.0 mi SSW 5.8 mph - N/A   Clear
6:35 PM 55.6 °F - 30.2 °F 38% 29.93 in 10.0 mi SSW 6.9 mph - N/A   Clear
6:55 PM 54.7 °F - 31.6 °F 42% 29.95 in 10.0 mi WSW 5.8 mph - N/A   Scattered Clouds
7:15 PM 55.4 °F - 29.8 °F 38% 29.96 in 10.0 mi WNW 6.9 mph 16.1 mph N/A   Mostly Cloudy
7:35 PM 55.9 °F - 30.2 °F 37% 29.97 in 10.0 mi WNW 10.4 mph 19.6 mph N/A   Overcast
7:55 PM 55.6 °F - 31.1 °F 39% 29.98 in 10.0 mi NW 13.8 mph 24.2 mph N/A   Overcast
8:15 PM 55.0 °F - 31.1 °F 40% 29.99 in 10.0 mi NW 11.5 mph 24.2 mph N/A   Mostly Cloudy
8:35 PM 54.7 °F - 30.2 °F 39% 29.99 in 10.0 mi NW 18.4 mph 25.3 mph N/A   Mostly Cloudy
8:55 PM 54.3 °F - 30.0 °F 39% 30.00 in 10.0 mi NW 19.6 mph 28.8 mph N/A   Mostly Cloudy
9:15 PM 53.1 °F - 31.1 °F 43% 30.02 in 10.0 mi NW 15.0 mph 29.9 mph N/A   Mostly Cloudy
9:35 PM 50.2 °F - 32.0 °F 50% 30.02 in 10.0 mi WNW 12.7 mph - N/A   Scattered Clouds
9:55 PM 49.5 °F - 31.3 °F 50% 30.03 in 10.0 mi WNW 8.1 mph 20.7 mph N/A   Clear
10:15 PM 48.6 °F - 27.9 °F 45% 30.04 in 10.0 mi WNW 15.0 mph 20.7 mph N/A   Clear
10:35 PM 48.6 °F - 24.3 °F 39% 30.06 in 10.0 mi NW 15.0 mph 24.2 mph N/A   Clear
10:55 PM 47.3 °F - 24.3 °F 40% 30.08 in 10.0 mi WNW 10.4 mph 21.9 mph N/A   Clear
11:15 PM 45.7 °F 41.5 °F 23.4 °F 41% 30.08 in 10.0 mi West 8.1 mph 16.1 mph N/A   Clear
11:35 PM 45.3 °F 39.0 °F 21.2 °F 38% 30.08 in 10.0 mi WNW 13.8 mph 20.7 mph N/A   Clear
11:55 PM 44.6 °F 37.4 °F 20.1 °F 38% 30.08 in 10.0 mi WNW 16.1 mph 27.6 mph N/A   Clear